sat.trackr.live / text

‹ back to catalog

STARLINK-37773

NORAD 69346 · 2026-122T

PAYLOAD ACTIVE UNKNOWN

§ Identity

Operator
Country
US
Launch date
2026-06-03
Launch site
AFWTR
Launch vehicle
Mass (kg)
RCS (m²)

Purposes: comms

External: N2YO · Heavens-Above · Gunter

§ Orbital elements

Epoch: 2026-09-20T01:24:14.596128Z

Period
93.91 min
Inclination
97.2855°
Eccentricity
0.0000203
Mean motion
15.33459007 rev/d
Perigee alt
465.4 km
Apogee alt
465.6 km
Semi-major
6,843.6 km
B*
3.7081e-4
RAAN
291.7161°
Arg perigee
219.5851°
Mean anomaly
140.5377°
Rev number
1,673

§ Raw data

STARLINK-377731 69346U 26122T   26263.05850227  .00011920  00000+0  37081-3 0  99932 69346  97.2855 291.7161 0000203 219.5851 140.5377 15.33459007 16730

JSON: /api/v1/satellites/69346 · /tle

For live sub-satellite position, see the globe view (requires WebGL).

§ Visibility from observer

Set your observer location to see the next 7 days of passes ≥ 10°. The values pass through the URL so the page stays shareable.

No JS? Fill the form by hand. The geolocation button needs JavaScript.